Погода в Туркестане

Хотите узнать прогноз погоды в Туркестане? Тогда Вам сюда: Погода в Туркестане

Поиск расширенной информации на нашем сайте:

Полезная информация:

Новости сайта



02.01.2020
Опубликован Долгосрочный прогноз погоды по городам России и ближнего зарубежья на январь 2020 года.
Карты: Прогноз на январь и февраль 2020 года, Сравнение прогнозируемой аномалии приземной температуры воздуха на январь 2020 года по разным моделям.




Погода в Туркестане - сегодня

Время (UTC), дата Ветер
(°,м/с) 
Видим.   Явления Облачность Т
(°С)
Тd
(°С)
f(%) Тe
(°С)
Pmin
(гПа)
dP
(гПа)
Po
(мм)
O2
(г/м3)
Тmin Tmax R s Состояние
почвы
06 30.11.20 330 (СЗ) 10 км    4/0 верхняя 
[Ci sp]
-4.2 -7.2 80 -6  1038.2  -0.3  759  311  -10.9         
09 30.11.20 310 (СЗ) 20000 м    6/0 верхняя 
[Ci sp]
+0.8 -6.1 60 +1  1035.1  -2.4  757  305           
12 30.11.20 320 (СЗ) 20000 м    8/0 средняя, верхняя 
[Ac lent|Ci sp]
-1.9 -4 86 -3  1034.5  -0.9  756  307           
15 30.11.20 тихо ()   н/о    9/0 верхняя 
[Cs]
-3.8 -5 91 -4  1033.6  -1  755  309    +1.5       
18 30.11.20 тихо ()   н/о    9/0 верхняя 
[Cs]
-5.5 -6.2 95 -6  1032.1  -1.7  754  311    +1.5       
21 30.11.20 тихо ()   н/о    10/0 верхняя 
[Cs]
-6.1 -6.9 94 -6  1031  -1.2  753  311           
00 01.12.20 200 (Ю) н/о    10/0 верхняя 
[Cs]
-5.6 -6.3 95 -5  1029.2  -1.6  752  310           
03 01.12.20 340 (С) 10 км    10/0 средняя, верхняя 
[Ac As|Ci sp]
-5.2 -5.5 98 -7  1029.4  0.2  752  310        равномерный
мокрый или
старый снег
100% 
06 01.12.20 тихо ()   10 км    8/0 средняя, верхняя 
[Ac As|Ci sp]
+1 -3.9 70 +1  1028.8  752  302  -6.9         
09 01.12.20 320 (СЗ) 10 км    10/6 600 м кучево-дожд., средняя 
[Cb cap|Ac As]
+1.8 -2.3 74 +1  1028.4  -0.3  752  301           
12 01.12.20 330 (СЗ) 10 км    10/5 600 м кучево-дожд., средняя 
[Cb cap|Ac As]
+0.3 +0.3 100 1029  0.4  752  303           
15 01.12.20 340 (С) н/о    10/0 средняя 
[Ac As]
-0.1 -1 94 +1  1029  752  303    +3.4       
18 01.12.20 тихо ()   н/о    10/0 средняя 
[Ac und]
-0.8 -1.2 97 -1  1029  -0.1  752  304    +3.4       
21 01.12.20 тихо ()   н/о    8/0 средняя 
[Ac As]
-1.1 -1.3 99 -1  1029.2  0.2  752  305           
00 02.12.20 тихо ()   н/о    10/0 средняя 
[Ac As]
-1.3 -1.5 99 -1  1029.3  0.1  752  305           
03 02.12.20 тихо ()   10 км    10/5 600 м кучево-дожд., средняя 
[Cb cap|Ac As]
-1.3 -1.5 99 -1  1029.3  752  305        мокрый или
старый снег
50-90% 
06 02.12.20 170 (Ю) 10 км    8/3 600 м кучево-дожд., средняя 
[Cb cap|Ac As]
+0.8 -1.5 85 +1  1030.1  753  303  -1.4         
09 02.12.20 130 (ЮВ) 10 км    6/0 средняя 
[Ac As]
+4.5 -2.2 62 +5  1028.3  -1.5  752  298           
12 02.12.20 тихо ()   10 км    6/0 средняя, верхняя 
[Ac lent|Ci fib]
+2.5 -0.8 79 +3  1027.7  -0.7  752  300           
15 02.12.20 340 (С) н/о    9/0 средняя 
[Ac As]
+0.2 -2.2 84 +1  1027.9  752  303    +5.2       
18 02.12.20 300 (СЗ) н/о    10/0 средняя 
[Ac As]
-0.1 -1.8 88 -1  1027.8  -0.2  751  303    +5.2       
21 02.12.20 300 (СЗ) н/о    10/0 средняя 
[Ac As]
-2.4 -3.6 91 -4  1027.4  -0.6  751  306           
00 03.12.20 310 (СЗ) н/о    8/0 средняя 
[Ac As]
-4.3 -4.9 96 -7  1028.4  0.8  752  308           
03 03.12.20 320 (СЗ) 10 км    3/0 средняя 
[Ac lent]
-8.5 -9.1 95 -12  1030.7  1.8  753  314           
06 03.12.20 300 (СЗ) 10 км    3/0 средняя 
[Ac lent]
-4.4 -6.4 86 -4  1031.5  1.2  754  309  -8.5         
Время (UTC), дата Ветер
(°,м/с) 
Видим.   Явления Облачность Т
(°С)
Тd
(°С)
f(%) Тe
(°С)
Pmin
(гПа)
dP
(гПа)
Po
(мм)
O2
(г/м3)
Тmin Tmax R s Состояние
почвы

Для получения пояснительной информации подведите курсор к названию столбца.

ПОГОДА в Туркестане - архив

Всё, что Вы хотите узнать о погоде в Туркестане - удобно и подробно!

Выберите нужную дату (начиная с 1 января 2019* года) и нажмите кнопку "Найти".
Будут отображены архивные сводки погоды по пункту Туркестан, начиная с указанной даты.


Отображать данные в формате CSV (для использования в таблицах Excel)


Внимание! Наш архив погоды предназначен исключительно для личного некоммерческого использования в познавательных целях. Если Вам необходимы официальные справки о состоянии погоды (для производственных, юридических, коммерческих и т.п. целей), обращайтесь в органы Росгидромета.

*Примечание: данная дата относится к архиву по метеостанциям СССР (Россия, СНГ, Балтия).
Архив по метеостанциям Зарубежной Европы и Азии (кроме Китая) хранится 10 дней, по другим регионам земного шара (Китай, Африка, Америка, Австралия, Океания) - 1 день.

Туркестан - район местоположения метеостанции


Название, широта, долгота, высота метеостанции:
Туркестан 43.3°ш. 68.2°д. 207 м над ур. моря [Казахстан]

Дополнительная информация

В oтличие oт бoльшинства пoгoдных сайтoв мы публикуем пoдрoбную метеoинфoрмацию в детальнoм прoфессиoнальнoм фoрмате.

Характеристики температуры и влажнoсти вoздуха измеряются на высoте 2 м в тени вдали oт зданий и деревьев.
Скoрoсть ветра измеряется на высoте 10 м (на урoвне рoста челoвека скoрoсть ветра ниже в 1.5-2 раза). Если метеoстанция нахoдится в гoрoде или в лесу, тo скoрoсть ветра занижена на 2-4 м/с пo сравнению с oткрытым местoм. Скoрoсть ветра над акватoриями крупных рек и oзёр, а также на вершинах хoлмoв на 2-5 м/с выше, чем в oбычных услoвиях.
Атмoсфернoе давление в разных тoчках местнoсти мoжет значительнo oтличаться oт давления на метеoстанции, в зависимoсти oт услoвий рельефа (при пoдъёме на 10 м давление пoнижается примернo на 1 мм рт.ст.).